Temp
62 62 61 62 61 62 62 61 59 55 57 61 59 61 62 61 60 60 59 57 59 60 61 61 61 61 61 61 61 61 61 62 62 62 62 62 62 63
62 62 62 62 62 61 61 62 61 59 55 64 59 59 59 59 60 59 58 55 57 59 59 58 58 59 59 59 59 59 59 60 60 61 61 62 62 62
62 62 61 63 62 61 61 62 61 60 57 61 58 59 57 58 55 56 56 55 55 56 58 58 57 58 58 58 58 58 58 59 59 60 60 61 61 61
62 61 61 62 61 62 61 61 61 62 60 58 61 55 56 56 56 54 54 56 56 55 57 57 57 57 57 57 56 56 56 57 57 58 58 59 59 59
62 61 61 62 61 61 60 60 60 60 61 59 60 58 54 52 52 53 52 54 54 54 56 56 56 56 56 56 56 55 55 55 55 55 55 56 56 57
62 61 61 61 61 60 60 60 60 59 59 59 59 59 52 48 50 49 48 51 52 52 53 54 55 55 55 56 55 53 53 53 54 54 54 53 53 55
59 58 59 58 55 59 60 60 59 59 59 56 53 51 48 45 47 49 51 53 50 52 49 50 51 52 53 54 53 52 52 53 53 54 54 53 53 53
58 57 57 52 53 52 53 53 56 55 55 54 53 52 53 52 53 52 50 47 48 49 49 49 50 49 51 52 53 52 52 52 52 53 53 53 52 52
52 53 49 49 49 51 51 50 48 48 47 48 48 50 49 50 49 49 49 50 51 48 47 45 48 46 50 51 51 51 51 51 51 52 51 51 52 52
46 47 46 46 47 47 47 46 45 45 44 45 44 44 45 45 46 45 46 46 41 40 43 38 41 42 46 48 50 50 50 50 50 51 51 50 50 50
44 45 45 45 47 47 45 43 44 43 46 46 46 46 45 46 46 43 39 36 38 37 38 39 38 37 38 41 46 49 49 50 50 50 50 50 49 49
44 44 46 45 46 47 44 42 41 41 40 40 39 41 42 42 43 39 37 35 35 35 37 36 35 36 35 38 40 44 47 49 49 50 50 49 49 47
43 42 42 45 44 45 45 42 41 43 41 37 35 36 37 38 37 37 36 34 33 34 38 37 34 34 34 35 35 38 40 42 44 48 49 48 48 47
39 39 41 44 43 43 42 42 42 41 38 36 35 35 35 35 35 35 35 35 35 34 37 36 33 34 33 34 34 34 36 38 39 41 44 47 48 48
42 43 42 41 41 40 41 40 39 37 35 34 33 34 34 34 33 34 34 34 33 34 34 33 33 34 33 33 33 33 33 34 36 35 37 41 43 44
42 39 40 40 40 38 37 37 36 35 33 32 33 33 34 34 34 34 33 34 33 33 33 33 33 33 33 33 32 33 33 32 33 35 34 34 36 39
36 34 31 29 28 29 31 30 32 33 32 32 32 32 32 33 33 34 33 33 31 31 32 27 32 32 32 32 32 33 33 32 32 32 32 32 33 35
32 28 27 27 27 28 29 31 31 32 29 30 31 32 31 31 32 33 33 32 31 31 31 33 25 27 28 30 34 32 32 32 32 32 32 32 32 32
29 27 26 27 27 27 27 28 28 30 31 30 30 30 31 31 31 31 31 31 31 31 32 32 30 28 26 24 28 36 32 32 32 31 32 32 32 32
27 26 25 25 25 23 28 28 28 29 28 29 28 29 28 29 29 29 30 30 30 31 32 33 31 30 27 26 26 27 34 31 32 31 30 32 32 34
27 26 26 25 24 23 28 26 26 23 27 25 24 22 26 27 26 28 29 32 32 30 29 31 33 37 32 31 26 25 29 33 32 31 30 29 29 29
26 26 26 25 25 27 26 25 24 25 25 24 24 24 24 25 24 26 27 27 29 29 30 32 33 33 30 27 26 25 26 29 32 34 34 32 28 25
25 25 23 23 25 26 25 24 24 25 24 24 23 23 23 23 25 26 26 27 28 29 30 29 32 30 28 27 28 25 26 27 28 28 29 34 33 33
MSLP
1012.66 1013.17 1013.47 1013.68 1014.01 1014.02 1014.33 1014.75 1015.54 1016.06 1015.83 1015.22 1015.52 1015.40 1015.25 1015.39 1015.17 1015.14 1015.67 1015.74 1015.91 1016.34 1016.83 1016.71 1016.92 1017.60 1017.54 1017.89 1018.06 1018.22 1018.31 1018.18 1018.34 1018.40 1018.62 1018.69 1018.68 1018.58
1012.12 1012.80 1013.11 1013.38 1013.73 1014.04 1013.85 1014.34 1014.96 1015.40 1014.99 1014.47 1014.81 1014.68 1014.55 1014.58 1014.59 1014.77 1014.84 1015.20 1015.55 1015.82 1016.24 1016.51 1016.08 1017.03 1016.62 1017.41 1017.30 1017.51 1017.69 1017.53 1017.81 1018.01 1018.03 1018.13 1018.06 1018.05
1011.52 1012.05 1012.49 1012.66 1012.84 1013.19 1013.49 1013.78 1014.18 1014.35 1014.26 1013.94 1014.11 1014.10 1014.26 1013.98 1014.24 1014.60 1014.84 1015.11 1015.13 1015.44 1015.46 1015.83 1015.73 1016.18 1015.89 1016.58 1016.54 1016.70 1016.95 1016.98 1016.93 1017.20 1017.23 1017.42 1017.49 1017.58
1011.00 1011.19 1011.59 1012.00 1012.17 1012.42 1012.70 1012.95 1013.27 1013.24 1013.48 1013.34 1013.51 1013.84 1013.65 1013.30 1013.29 1013.90 1014.24 1014.38 1014.26 1014.45 1014.66 1014.82 1014.82 1015.64 1015.79 1016.02 1015.75 1015.64 1015.86 1016.36 1016.16 1016.34 1016.65 1016.69 1016.73 1016.96
1010.01 1010.42 1010.86 1011.06 1011.42 1011.66 1012.02 1012.27 1012.43 1012.57 1012.67 1012.78 1012.33 1012.59 1012.70 1013.10 1013.26 1013.49 1013.88 1013.88 1013.81 1013.76 1013.54 1013.93 1012.78 1014.41 1014.80 1014.75 1014.87 1014.81 1015.19 1015.36 1015.59 1015.41 1015.99 1016.10 1016.06 1015.94
1009.47 1009.78 1010.08 1010.52 1010.79 1011.17 1011.30 1011.26 1011.38 1011.70 1011.96 1011.92 1011.53 1011.54 1012.06 1012.30 1012.43 1012.75 1013.17 1013.16 1012.96 1012.80 1013.05 1013.32 1012.19 1012.92 1013.47 1013.40 1013.41 1013.64 1014.00 1014.17 1014.45 1014.45 1014.77 1015.07 1015.33 1015.41
1008.65 1008.93 1009.19 1009.60 1010.00 1010.27 1010.53 1010.63 1010.88 1011.14 1011.12 1011.14 1011.18 1011.45 1011.92 1012.65 1012.60 1012.52 1012.56 1012.35 1012.16 1012.32 1012.27 1011.45 1011.53 1011.66 1011.97 1012.12 1012.34 1012.58 1012.63 1012.81 1013.31 1013.28 1013.54 1013.73 1014.20 1014.55
1008.24 1008.32 1008.92 1009.54 1009.75 1010.15 1010.13 1010.19 1010.43 1010.54 1010.79 1010.99 1011.20 1011.46 1011.61 1011.69 1011.81 1011.72 1011.69 1011.84 1011.64 1011.10 1010.92 1010.79 1011.31 1011.23 1011.14 1011.36 1011.31 1010.84 1011.07 1011.52 1011.82 1012.50 1012.54 1013.11 1013.27 1013.40
1008.80 1008.98 1009.80 1010.10 1009.96 1010.47 1010.57 1010.83 1011.15 1011.35 1011.55 1011.60 1011.65 1011.70 1011.78 1011.67 1011.74 1011.56 1011.54 1011.18 1010.93 1010.98 1011.07 1010.67 1010.84 1010.74 1010.51 1010.36 1010.65 1010.79 1010.92 1011.02 1011.05 1011.24 1011.63 1011.87 1012.57 1012.68
1009.85 1010.29 1010.34 1010.48 1010.95 1010.68 1011.23 1011.40 1011.78 1011.96 1012.04 1012.28 1012.49 1012.60 1012.47 1012.28 1011.93 1011.94 1011.84 1011.60 1011.58 1011.54 1011.47 1011.21 1011.10 1010.72 1010.50 1010.12 1010.07 1009.96 1009.96 1010.24 1010.48 1010.65 1010.62 1011.02 1011.36 1012.01
1010.69 1010.96 1010.93 1011.22 1011.47 1011.32 1011.52 1011.79 1012.13 1012.46 1012.67 1012.53 1012.47 1012.68 1012.56 1012.24 1012.09 1011.98 1012.22 1012.35 1012.00 1011.94 1011.74 1011.43 1011.02 1010.75 1010.39 1009.90 1009.72 1009.58 1009.31 1009.41 1009.58 1009.95 1009.93 1010.15 1010.47 1011.00
1011.31 1011.57 1011.78 1011.87 1012.09 1012.41 1012.70 1012.91 1012.97 1012.99 1012.88 1012.71 1012.87 1012.61 1012.36 1012.31 1012.30 1012.66 1012.74 1012.79 1012.70 1012.20 1011.96 1012.00 1011.30 1011.10 1010.35 1009.47 1009.10 1009.09 1009.05 1009.15 1009.04 1009.12 1009.34 1009.47 1009.47 1010.06
1011.88 1012.45 1012.82 1012.95 1013.07 1013.22 1013.19 1013.09 1013.07 1012.92 1013.16 1013.21 1013.06 1012.85 1012.69 1012.54 1012.67 1012.75 1012.84 1012.83 1012.57 1012.45 1012.19 1012.02 1011.40 1011.19 1011.00 1010.16 1009.57 1009.10 1009.22 1009.07 1009.02 1008.67 1008.59 1008.86 1008.95 1008.94
1012.76 1013.18 1013.36 1013.38 1013.55 1013.73 1013.76 1013.68 1013.33 1013.20 1013.30 1013.32 1013.19 1013.11 1012.95 1013.00 1012.99 1012.91 1012.70 1012.73 1012.49 1012.24 1011.89 1011.81 1011.68 1011.22 1010.98 1010.55 1010.27 1009.58 1009.26 1009.15 1009.12 1008.84 1008.37 1007.98 1008.21 1008.55
1013.29 1013.68 1013.87 1013.97 1013.95 1014.01 1013.93 1013.86 1013.69 1013.60 1013.63 1013.69 1013.76 1013.67 1013.71 1013.55 1013.32 1013.00 1012.53 1012.34 1012.23 1011.88 1011.47 1011.34 1011.33 1011.06 1010.88 1010.70 1010.27 1009.75 1009.34 1009.20 1009.03 1008.96 1008.43 1007.87 1008.01 1008.18
1013.47 1013.78 1013.96 1014.10 1014.11 1014.28 1014.33 1014.28 1014.39 1014.41 1014.46 1014.52 1014.53 1014.33 1014.05 1013.75 1013.40 1013.09 1012.67 1012.22 1011.89 1011.62 1010.98 1010.69 1010.76 1010.75 1010.48 1010.13 1010.00 1009.64 1009.13 1009.11 1009.00 1008.48 1008.32 1008.34 1008.15 1008.19
1014.13 1014.44 1014.86 1015.05 1015.15 1015.16 1015.33 1015.22 1014.88 1014.76 1014.70 1014.62 1014.54 1014.34 1014.11 1013.79 1013.55 1013.16 1012.68 1012.49 1012.17 1011.51 1010.91 1010.67 1010.45 1010.30 1010.02 1009.88 1009.52 1008.97 1008.54 1008.60 1008.69 1008.53 1008.36 1008.00 1008.16 1008.35
1014.53 1014.94 1015.32 1015.52 1015.65 1015.63 1015.65 1015.62 1015.44 1015.36 1015.38 1015.10 1014.89 1014.69 1014.50 1013.98 1013.72 1013.05 1012.68 1012.36 1011.92 1011.36 1010.85 1010.68 1010.51 1010.17 1009.82 1009.16 1008.82 1008.45 1008.26 1008.33 1008.07 1008.16 1008.05 1008.00 1007.92 1008.23
1015.17 1015.57 1015.79 1015.88 1015.93 1015.98 1016.01 1016.01 1015.87 1015.75 1015.75 1015.38 1015.21 1015.03 1014.66 1014.24 1013.78 1013.32 1012.86 1012.40 1011.71 1011.08 1010.48 1010.17 1009.95 1009.79 1009.62 1009.00 1008.20 1008.14 1008.05 1007.72 1007.65 1007.85 1008.08 1007.95 1008.11 1008.25
1015.36 1015.62 1015.84 1015.99 1016.17 1016.28 1016.30 1016.31 1016.34 1016.21 1015.95 1015.71 1015.56 1015.21 1014.88 1014.48 1013.91 1013.36 1012.75 1012.08 1011.30 1010.54 1009.93 1009.48 1009.30 1009.17 1009.14 1008.77 1008.35 1007.99 1007.72 1007.60 1007.49 1007.54 1007.83 1007.81 1007.94 1008.15
1015.60 1015.79 1016.01 1016.27 1016.47 1016.51 1016.57 1016.81 1016.79 1016.60 1016.19 1016.17 1015.92 1015.69 1015.10 1014.57 1013.99 1013.35 1012.69 1011.94 1011.19 1010.66 1009.83 1009.15 1008.68 1008.45 1008.25 1008.33 1008.26 1008.00 1007.55 1007.42 1007.46 1007.64 1007.81 1007.99 1008.21 1008.15
1015.83 1015.91 1016.05 1016.20 1016.25 1016.43 1016.69 1016.75 1016.60 1016.35 1016.12 1016.05 1015.92 1015.66 1015.33 1014.92 1014.25 1013.59 1012.90 1012.09 1011.32 1010.58 1009.67 1008.92 1008.32 1007.92 1007.85 1007.91 1007.81 1007.79 1007.72 1007.57 1007.34 1007.53 1007.59 1007.80 1007.85 1007.90
1015.77 1015.75 1015.79 1015.86 1016.02 1016.19 1016.40 1016.65 1016.44 1016.27 1016.23 1016.11 1015.86 1015.56 1015.15 1014.59 1014.08 1013.47 1012.80 1012.12 1011.31 1010.39 1009.53 1008.71 1008.04 1007.66 1007.45 1007.52 1007.49 1007.57 1007.60 1007.67 1007.70 1007.76 1007.82 1007.73 1007.56 1008.20
Wind_Speed
10 9 6 4 3 4 3 4 6 8 9 5 4 7 8 7 9 8 10 13 17 16 16 13 9 9 11 11 9 9 11 8 9 9 12 14 14 15
8 10 10 8 6 5 5 6 7 9 6 9 7 6 7 6 9 10 10 9 13 16 16 14 12 14 14 13 13 14 14 13 14 15 16 17 16 15
10 12 12 12 9 7 7 7 8 7 10 13 4 5 7 8 4 5 4 5 5 15 16 18 16 17 15 16 16 16 16 17 17 18 18 17 17 16
13 12 13 9 10 10 7 10 10 10 9 16 11 6 9 8 8 8 7 6 8 13 19 20 17 18 17 18 18 18 18 18 17 18 18 17 16 15
10 10 11 10 9 8 9 9 8 8 9 11 13 5 4 3 3 3 5 8 7 12 17 23 20 21 22 22 21 20 20 18 18 16 16 17 16 15
9 11 9 9 10 10 10 11 10 10 10 12 12 10 3 1 2 3 5 6 9 8 11 15 14 23 25 25 25 23 21 21 21 20 19 17 15 15
11 9 8 10 14 12 8 9 9 10 10 8 3 2 2 2 5 3 7 8 7 9 7 8 9 11 14 23 20 24 25 24 24 23 21 19 16 15
8 6 3 4 3 5 6 7 4 5 6 5 3 3 7 6 7 8 7 5 6 6 7 10 9 11 10 10 21 27 28 28 26 23 21 19 17 17
5 6 6 5 9 4 8 10 10 13 11 3 3 3 5 6 5 4 6 7 8 1 4 6 5 10 9 10 18 20 23 24 24 23 22 20 18 17
10 9 8 9 10 7 5 6 5 5 6 4 4 4 4 5 5 4 5 5 2 2 1 3 1 3 5 7 15 19 23 24 22 24 22 20 18 17
12 11 10 10 13 12 7 6 6 5 4 4 5 7 9 10 9 3 3 2 3 2 3 3 3 3 3 6 7 17 17 16 20 21 21 21 19 18
9 10 17 13 16 13 6 5 4 2 5 6 4 4 6 6 10 5 2 0 1 3 3 3 2 2 4 2 3 4 6 17 18 21 21 22 21 9
8 7 7 15 16 14 12 7 7 4 5 4 4 4 4 5 4 3 1 1 2 3 3 1 2 2 2 4 3 2 3 5 6 10 20 21 21 17
7 5 6 16 15 16 11 16 17 10 5 4 4 5 5 3 4 4 4 3 4 6 4 3 3 1 1 3 3 2 2 3 4 6 7 13 21 22
4 11 15 14 14 11 16 17 14 9 6 6 6 5 5 5 5 4 3 5 6 5 4 2 3 2 3 4 4 3 1 2 4 2 3 5 7 6
7 9 11 11 14 11 9 9 6 6 6 6 6 5 4 5 7 5 6 8 7 5 5 5 4 3 5 5 4 5 3 3 2 5 2 2 2 3
6 4 3 3 3 4 4 4 3 4 5 5 5 6 6 6 6 5 6 6 7 9 8 3 5 5 5 6 6 6 4 3 3 2 2 3 1 1
5 4 4 4 4 4 4 6 6 8 5 5 5 5 6 6 7 6 5 6 7 9 9 7 2 2 2 6 14 6 4 5 3 3 1 2 1 3
3 2 2 2 2 3 3 5 5 5 6 5 5 7 6 6 9 6 6 6 7 7 7 6 4 3 5 8 3 16 7 3 3 3 3 2 2 2
2 2 2 2 2 2 3 3 5 5 5 5 6 5 5 6 6 6 6 8 8 8 8 6 5 6 6 6 3 2 12 4 3 3 2 1 2 5
1 2 1 1 1 1 4 4 5 4 5 5 4 4 6 7 7 8 8 15 15 8 9 8 6 15 6 1 2 2 2 9 3 3 2 2 2 2
2 2 1 1 1 2 1 3 3 4 3 4 5 5 5 6 7 8 8 9 9 8 9 8 8 5 3 5 5 3 2 1 5 6 4 3 3 2
2 2 1 1 1 1 1 2 4 4 2 3 3 5 5 5 6 7 7 9 9 9 9 9 7 3 2 3 5 3 4 3 3 3 2 8 8 7
Wind_Direction
205 218 222 227 190 243 158 157 201 246 237 233 223 216 213 207 216 195 211 207 207 214 231 232 229 243 198 211 229 256 270 264 260 250 253 259 264 271
207 221 222 213 218 214 203 218 218 230 249 241 225 208 210 215 216 205 210 195 207 212 219 226 211 228 199 214 213 225 239 236 244 251 255 259 261 265
197 207 214 215 215 207 203 209 221 221 239 252 236 222 215 211 204 208 195 203 202 217 217 222 221 227 210 217 217 223 232 235 235 243 247 254 262 269
205 199 216 208 216 219 211 213 222 223 230 251 247 220 213 212 198 192 205 212 210 209 214 216 215 228 229 228 222 220 224 233 231 236 243 247 254 262
199 200 212 208 212 210 211 220 226 232 228 238 248 221 195 175 180 198 208 224 229 229 214 220 201 226 227 224 226 226 229 227 229 223 232 239 243 245
213 204 197 213 224 223 220 223 222 227 234 243 247 238 199 155 181 167 228 220 234 214 224 230 218 224 228 225 226 224 222 221 224 221 222 226 233 238
214 204 193 201 212 221 223 231 230 236 242 241 237 164 167 177 203 207 245 253 242 231 236 226 220 219 227 232 234 228 222 221 225 220 219 216 222 225
199 200 191 32 318 277 254 269 237 229 250 226 224 241 240 217 227 228 232 221 250 199 217 239 217 237 239 240 242 227 224 223 220 222 218 220 220 211
67 93 89 64 55 32 50 63 62 50 51 12 359 358 346 17 345 287 254 259 263 299 209 265 207 239 243 241 243 245 242 233 222 219 215 209 217 207
65 67 72 56 43 50 49 59 50 45 38 46 44 346 350 334 345 321 311 309 2 336 335 270 276 262 253 247 242 237 233 231 227 222 211 206 204 205
69 58 59 56 43 47 51 48 40 40 8 25 36 20 17 18 11 7 358 355 305 283 245 263 214 254 233 241 240 236 233 226 224 222 210 203 198 196
74 58 58 61 53 49 49 41 42 23 4 6 358 9 18 18 33 46 10 305 296 312 349 286 300 212 298 267 236 229 237 236 235 224 214 205 190 190
67 61 51 60 56 52 50 41 22 8 18 16 2 1 7 18 18 28 20 202 193 228 360 242 295 312 269 301 303 251 223 249 260 234 214 210 198 188
63 55 55 53 52 46 42 33 30 33 24 14 15 5 3 356 348 338 320 284 251 248 275 245 271 211 294 307 282 325 282 264 263 252 232 210 205 201
101 78 61 51 50 43 37 33 29 24 22 22 10 4 341 319 309 306 282 270 261 256 237 220 218 257 212 256 276 261 272 279 236 267 294 216 199 204
64 63 52 50 47 40 34 28 20 25 24 13 350 336 320 329 333 332 323 325 313 288 236 220 232 207 256 237 238 260 209 249 290 235 180 334 341 234
73 63 59 46 38 34 24 13 10 27 10 360 350 342 338 332 323 320 314 309 295 306 306 291 240 236 243 252 257 239 238 225 223 235 201 190 168 320
57 52 38 38 34 19 14 6 6 8 353 340 338 332 325 324 313 316 311 306 298 303 301 300 255 270 280 249 224 247 228 231 191 196 190 219 177 165
75 63 73 52 36 35 23 1 349 358 336 329 340 323 315 313 321 308 298 293 292 293 291 277 250 239 268 271 283 220 244 212 168 197 199 188 164 184
80 85 69 54 38 24 13 2 348 333 327 338 329 320 326 318 319 315 313 311 307 303 300 293 248 240 242 261 265 260 216 242 217 218 173 107 95 113
98 72 82 86 87 60 348 336 328 301 338 331 326 324 324 328 323 321 318 322 323 315 305 301 297 267 250 225 262 276 273 232 234 171 147 164 181 172
152 146 161 149 107 62 5 320 303 307 315 326 319 316 319 318 313 315 314 314 310 303 296 294 296 267 208 216 241 218 224 243 222 210 179 162 169 183
175 153 142 134 71 193 203 275 281 276 263 284 291 311 301 298 295 297 303 307 307 308 311 310 304 244 223 222 240 198 183 185 173 174 193 200 124 121